Location: Acheville
(50.3840°N, 2.8827°E)
Time: 13:04:48
(UTC+00:00)

Cosmos 2228 - Pass Details

Date: 24 October 2021
Orbit: 587 x 619 km, 82.5° (Epoch: 06 December)

Event Time Altitude Azimuth Distance (km) Brightness Sun altitude
Rises 18:18:44 0° 167° (SSE) 2,877 6.3 -16.6°
Reaches altitude 10° 18:21:03 10° 159° (SSE) 1,979 5.4 -16.9°
Maximum altitude 18:25:06 38° 92° (E) 961 3.5 -17.6°
Drops below altitude 10° 18:29:10 10° 25° (NNE) 1,997 5.5 -18.2°
Sets 18:31:31 0° 17° (NNE) 2,907 6.4 -18.6°
